INTELSAT 702 (IS-702)

Last updated on Sat Nov 12 2016 01:19:01 GMT+0000 (Coordinated Universal Time)

1 23124U 94034A 16316.72501995 -.00000160 00000-0 00000+0 0 9994 2 23124 4.1233 66.2790 0004784 216.1796 143.6491 0.98937797 96239
UTC large
Height (km)
Speed (km/s)
/
Latitude / Longitude
Inclination (degrees)
Orbital Period (minutes)
Azimuth
Elevation
Range (km)
Doppler Factor

Next 0 passes for location: London (51.5072 / 0.1276)

Sorry there are no passes over London.